Regional Weather Roundup
Issued by NWS New Orleans/Baton Rouge, LA

Home | Current Version | Previous Version | Text Only | Print | Product List | Glossary Off
Versions: 1 2 3 4 5 6 7 8 9 10 11 12 13 14 15 16 17 18 19 20 21 22 23 24 25 26 27 28 29 30 31 32 33 34 35 36 37 38 39 40 41 42 43 44 45 46 47 48 49 50

065
ASUS44 KLIX 271205
RWRLIX
NEW ORLEANS REGIONAL WEATHER ROUNDUP
NATIONAL WEATHER SERVICE NEW ORLEANS LA
700 AM CDT SUN JUL 27 2014

NOTE: "FAIR" INDICATES FEW OR NO CLOUDS BELOW 12,000 FEET WITH NO
      SIGNIFICANT WEATHER AND/OR OBSTRUCTIONS TO VISIBILITY.
      SKY/WX - SKY CONDITION AND SIGNIFICANT WEATHER.
      TMP - AIR TEMPERATURE.     DP    - DEWPOINT TEMPERATURE.
      RH  - RELATIVE HUMIDITY.   PRES  - PRESSURE.
      HI  - HEAT INDEX.          WCI   - WIND CHILL INDEX.

*  THESE STATIONS ARE NOT NWS OR FAA STATIONS AND ARE NOT UNDER
   NWS QUALITY CONTROL.

LAZ038-040-048-061>063-065>067-069-271300-
SOUTHEAST LOUISIANA

CITY           SKY/WX    TMP DP  RH WIND       PRES   REMARKS
N.O. AUDUBON     N/A     81  76  83 MISG        N/A
6HR MIN TEMP:  78; 6HR MAX TEMP:  83;

N.O. INTL ARPT PTCLDY    79  76  90 W5        30.08R
6HR MIN TEMP:  77; 6HR MAX TEMP:  81;

N.O. LAKEFRONT CLEAR     81  77  88 SW7       30.08R
6HR MIN TEMP:  81; 6HR MAX TEMP:  83;

N.O. DOWNTOWN*   N/A     81  72  74 SW3       30.08R
6HR MIN TEMP:  79; 6HR MAX TEMP:  82;

SLIDELL        CLEAR     77  73  87 CALM      30.07R
6HR MIN TEMP:  76; 6HR MAX TEMP:  81;

BATON ROUGE    CLEAR     78  75  90 W5        30.07R
6HR MIN TEMP:  77; 6HR MAX TEMP:  80;

BOOTHVILLE     CLEAR     80  77  90 CALM      30.08S
6HR MIN TEMP:  79; 6HR MAX TEMP:  82; 6HR PCP:  0.35;

BELLE CHASSE   CLEAR     77  73  87 CALM      30.08R
6HR MIN TEMP:  76; 6HR MAX TEMP:  80;

BOGALUSA*        N/A     77  74  88 CALM      30.09R
6HR MIN TEMP:  77; 6HR MAX TEMP:  79;

GALLIANO*      NOT AVBL
NEW ROADS*       N/A     75  75  98 CALM      30.07R FOG
6HR MIN TEMP:  74; 6HR MAX TEMP:  78;

GONZALES*        N/A     76  76  99 CALM      30.08R
6HR MIN TEMP:  76; 6HR MAX TEMP:  79;

HAMMOND*       CLEAR     77  73  88 CALM      30.09R
HOUMA*         PTCLDY    75  72  88 CALM      30.08R
PORT FOURCHON* CLOUDY    81  75  83 NW12      30.10R HAZE

$$

MSZ070-080>082-271300-
SOUTHERN MISSISSIPPI

CITY           SKY/WX    TMP DP  RH WIND       PRES   REMARKS
MCCOMB         CLEAR     76  74  93 CALM      30.08R FOG
6HR MIN TEMP:  75; 6HR MAX TEMP:  79;

GULFPORT       CLEAR     80  76  87 W5        30.06R
6HR MIN TEMP:  80; 6HR MAX TEMP:  84;

BILOXI         CLEAR     80  77  89 VRB2      30.06R
6HR MIN TEMP:  79; 6HR MAX TEMP:  82;

PASCAGOULA     CLEAR     78  76  93 W5        30.06R
6HR MIN TEMP:  77; 6HR MAX TEMP:  80;

STENNIS ARPT*  CLEAR    N/A N/A N/A CALM      30.07

$$

COASTAL OBSERVATIONS
LAKE AND NEARSHORE STATIONS

STATION/POSITION TIME  TEMP    WIND        PRES    WAVE
                       AIR SEA DIR/SP/G            HT/PER
                 (UTC) (F)     (DEG/KT/KT) (MB)    (FT/S)
PASCAGOULA       1200   81     280/  6/ 10 1017.5
WAVELAND YACHT   1200   78     290/  3/  4 1017.5
GRAND ISLE       1200   82 86  290/  4/  6 1019.4
SOUTHWEST PASS   1200   84 84  260/ 14/ 15 1019.0
NEW CANAL        1200   81 83  220/  4/  5 1018.9
SHELL BEACH      1200   80 81  250/  6/  7 1018.4

OFFSHORE STATIONS

STATION/POSITION TIME  TEMP    WIND        PRES    WAVE
                       AIR SEA DIR/SP/G            HT/PER
                 (UTC) (F)     (DEG/KT/KT) (MB)    (FT/S)
64 S DAUPHIN ISL 1113   84 85  280/ 12/ 16 1018.6

$$




USA.gov is the U.S. government's official web portal to all federal, state and local government web resources and services.